Location: Bailleul
(50.3375°N, 2.8513°E)
Time: 20:13:56
(UTC+00:00)

FALCON 9 DEB - Pass Details

Date: 19 April 2021
Orbit: 422 x 435 km, 53.0° (Epoch: 18 May)

Event Time Altitude Azimuth Distance (km) Brightness Sun altitude
Rises 19:59:39 0° 229° (SW) 2,379 7.1 -10.8°
Reaches altitude 10° 20:01:47 10° 223° (SW) 1,519 6.0 -11.1°
Maximum altitude 20:05:04 46° 149° (SSE) 584 3.4 -11.5°
Drops below altitude 10° 20:08:24 10° 75° (ENE) 1,535 5.5 -12.0°
Enters shadow 20:08:33 - 74° (ENE) 1,598 5.6 -12.0°
